Year,Month,Day,Hour,Minute,Value (Times are PST for temperature in C)
2014,06,22,00,00,13.40
2014,06,22,00,01,13.40
2014,06,22,00,02,13.40
2014,06,22,00,03,13.40
2014,06,22,00,04,13.40
2014,06,22,00,05,13.30
2014,06,22,00,06,13.30
2014,06,22,00,07,13.30
2014,06,22,00,08,13.30
2014,06,22,00,09,13.30
2014,06,22,00,10,13.30
2014,06,22,00,11,13.30
2014,06,22,00,12,13.30
2014,06,22,00,13,13.20
2014,06,22,00,14,13.20
2014,06,22,00,15,13.20
2014,06,22,00,16,13.20
2014,06,22,00,17,13.20
2014,06,22,00,18,13.20
2014,06,22,00,19,13.20
2014,06,22,00,20,13.10
2014,06,22,00,21,13.10
2014,06,22,00,22,13.10
2014,06,22,00,23,13.10
2014,06,22,00,24,13.10
2014,06,22,00,25,13.10
2014,06,22,00,26,13.10
2014,06,22,00,27,13.10
2014,06,22,00,28,13.10
2014,06,22,00,29,13.10
2014,06,22,00,30,13.10
2014,06,22,00,31,13.10
2014,06,22,00,32,13.10
2014,06,22,00,33,13.10
2014,06,22,00,34,13.10
2014,06,22,00,35,13.10
2014,06,22,00,36,13.10
2014,06,22,00,37,13.10
2014,06,22,00,38,13.20
2014,06,22,00,39,13.20
2014,06,22,00,40,13.20
2014,06,22,00,41,13.10
2014,06,22,00,42,13.10
2014,06,22,00,43,13.10
2014,06,22,00,44,13.10
2014,06,22,00,45,13.00
2014,06,22,00,46,13.00
2014,06,22,00,47,13.00
2014,06,22,00,48,13.00
2014,06,22,00,49,12.90
2014,06,22,00,50,12.90
2014,06,22,00,51,12.90
2014,06,22,00,52,12.90
2014,06,22,00,53,12.90
2014,06,22,00,54,12.90
2014,06,22,00,55,12.90
2014,06,22,00,56,12.90
2014,06,22,00,57,12.90
2014,06,22,00,58,12.90
2014,06,22,00,59,12.90
2014,06,22,01,00,12.90
2014,06,22,01,01,12.90
2014,06,22,01,02,12.90
2014,06,22,01,03,12.80
2014,06,22,01,04,12.80
2014,06,22,01,05,12.80
2014,06,22,01,06,12.80
2014,06,22,01,07,12.80
2014,06,22,01,08,12.80
2014,06,22,01,09,12.80
2014,06,22,01,10,12.80
2014,06,22,01,11,12.80
2014,06,22,01,12,12.70
2014,06,22,01,13,12.70
2014,06,22,01,14,12.70
2014,06,22,01,15,12.70
2014,06,22,01,16,12.70
2014,06,22,01,17,12.70
2014,06,22,01,18,12.70
2014,06,22,01,19,12.70
2014,06,22,01,20,12.70
2014,06,22,01,21,12.70
2014,06,22,01,22,12.70
2014,06,22,01,23,12.70
2014,06,22,01,24,12.70
2014,06,22,01,25,12.70
2014,06,22,01,26,12.70
2014,06,22,01,27,12.70
2014,06,22,01,28,12.70
2014,06,22,01,29,12.70
2014,06,22,01,30,12.70
2014,06,22,01,31,12.70
2014,06,22,01,32,12.70
2014,06,22,01,33,12.70
2014,06,22,01,34,12.70
2014,06,22,01,35,12.70
2014,06,22,01,36,12.70
2014,06,22,01,37,12.70
2014,06,22,01,38,12.70
2014,06,22,01,39,12.70
2014,06,22,01,40,12.70
2014,06,22,01,41,12.70
2014,06,22,01,42,12.70
2014,06,22,01,43,12.70
2014,06,22,01,44,12.70
2014,06,22,01,45,12.80
2014,06,22,01,46,12.80
2014,06,22,01,47,12.80
2014,06,22,01,48,12.80
2014,06,22,01,49,12.80
2014,06,22,01,50,12.80
2014,06,22,01,51,12.80
2014,06,22,01,52,12.80
2014,06,22,01,53,12.80
2014,06,22,01,54,12.80
2014,06,22,01,55,12.80
2014,06,22,01,56,12.70
2014,06,22,01,57,12.70
2014,06,22,01,58,12.70
2014,06,22,01,59,12.70
2014,06,22,02,00,12.70
2014,06,22,02,01,12.70
2014,06,22,02,02,12.70
2014,06,22,02,03,12.70
2014,06,22,02,04,12.70
2014,06,22,02,05,12.70
2014,06,22,02,06,12.70
2014,06,22,02,07,12.70
2014,06,22,02,08,12.70
2014,06,22,02,09,12.70
2014,06,22,02,10,12.70
2014,06,22,02,11,12.70
2014,06,22,02,12,12.70
2014,06,22,02,13,12.70
2014,06,22,02,14,12.70
2014,06,22,02,15,12.70
2014,06,22,02,16,12.70
2014,06,22,02,17,12.60
2014,06,22,02,18,12.60
2014,06,22,02,19,12.60
2014,06,22,02,20,12.60
2014,06,22,02,21,12.60
2014,06,22,02,22,12.60
2014,06,22,02,23,12.60
2014,06,22,02,24,12.60
2014,06,22,02,25,12.60
2014,06,22,02,26,12.60
2014,06,22,02,27,12.60
2014,06,22,02,28,12.60
2014,06,22,02,29,12.60
2014,06,22,02,30,12.60
2014,06,22,02,31,12.60
2014,06,22,02,32,12.60
2014,06,22,02,33,12.60
2014,06,22,02,34,12.60
2014,06,22,02,35,12.60
2014,06,22,02,36,12.60
2014,06,22,02,37,12.60
2014,06,22,02,38,12.50
2014,06,22,02,39,12.50
2014,06,22,02,40,12.50
2014,06,22,02,41,12.50
2014,06,22,02,42,12.50
2014,06,22,02,43,12.40
2014,06,22,02,44,12.40
2014,06,22,02,45,12.40
2014,06,22,02,46,12.40
2014,06,22,02,47,12.40
2014,06,22,02,48,12.30
2014,06,22,02,49,12.30
2014,06,22,02,50,12.30
2014,06,22,02,51,12.30
2014,06,22,02,52,12.30
2014,06,22,02,53,12.30
2014,06,22,02,54,12.30
2014,06,22,02,55,12.30
2014,06,22,02,56,12.30
2014,06,22,02,57,12.30
2014,06,22,02,58,12.20
2014,06,22,02,59,12.20
2014,06,22,03,00,12.20
2014,06,22,03,01,12.10
2014,06,22,03,02,12.10
2014,06,22,03,03,12.10
2014,06,22,03,06,12.00
2014,06,22,03,07,12.00
2014,06,22,03,08,12.00
2014,06,22,03,09,11.90
2014,06,22,03,10,11.90
2014,06,22,03,11,11.90
2014,06,22,03,12,11.90
2014,06,22,03,13,11.90
2014,06,22,03,14,11.90
2014,06,22,03,15,11.90
2014,06,22,03,16,11.90
2014,06,22,03,17,11.90
2014,06,22,03,18,11.90
2014,06,22,03,19,11.90
2014,06,22,03,20,11.90
2014,06,22,03,21,11.90
2014,06,22,03,22,11.90
2014,06,22,03,23,11.80
2014,06,22,03,24,11.80
2014,06,22,03,25,11.80
2014,06,22,03,26,11.80
2014,06,22,03,27,11.80
2014,06,22,03,28,11.80
2014,06,22,03,29,11.80
2014,06,22,03,30,11.80
2014,06,22,03,31,11.80
2014,06,22,03,32,11.80
2014,06,22,03,33,11.80
2014,06,22,03,34,11.80
2014,06,22,03,35,11.80
2014,06,22,03,36,11.80
2014,06,22,03,37,11.80
2014,06,22,03,38,11.80
2014,06,22,03,39,11.80
2014,06,22,03,40,11.80
2014,06,22,03,41,11.80
2014,06,22,03,42,11.80
2014,06,22,03,43,11.80
2014,06,22,03,44,11.80
2014,06,22,03,45,11.80
2014,06,22,03,46,11.70
2014,06,22,03,47,11.70
2014,06,22,03,48,11.70
2014,06,22,03,49,11.70
2014,06,22,03,50,11.70
2014,06,22,03,51,11.70
2014,06,22,03,52,11.70
2014,06,22,03,53,11.70
2014,06,22,03,54,11.80
2014,06,22,03,55,11.70
2014,06,22,03,56,11.70
2014,06,22,03,57,11.70
2014,06,22,03,58,11.70
2014,06,22,03,59,11.70
2014,06,22,04,00,11.70
2014,06,22,04,01,11.70
2014,06,22,04,02,11.70
2014,06,22,04,03,11.70
2014,06,22,04,04,11.70
2014,06,22,04,05,11.60
2014,06,22,04,06,11.60
2014,06,22,04,07,11.60
2014,06,22,04,08,11.50
2014,06,22,04,09,11.50
2014,06,22,04,10,11.50
2014,06,22,04,11,11.50
2014,06,22,04,12,11.40
2014,06,22,04,13,11.40
2014,06,22,04,14,11.40
2014,06,22,04,15,11.40
2014,06,22,04,16,11.40
2014,06,22,04,17,11.30
2014,06,22,04,18,11.30
2014,06,22,04,19,11.30
2014,06,22,04,20,11.30
2014,06,22,04,21,11.30
2014,06,22,04,22,11.30
2014,06,22,04,23,11.30
2014,06,22,04,24,11.30
2014,06,22,04,25,11.30
2014,06,22,04,26,11.30
2014,06,22,04,27,11.30
2014,06,22,04,28,11.30
2014,06,22,04,29,11.30
2014,06,22,04,30,11.30
2014,06,22,04,31,11.30
2014,06,22,04,32,11.20
2014,06,22,04,33,11.20
2014,06,22,04,34,11.20
2014,06,22,04,35,11.20
2014,06,22,04,36,11.20
2014,06,22,04,37,11.20
2014,06,22,04,38,11.20
2014,06,22,04,39,11.20
2014,06,22,04,40,11.20
2014,06,22,04,41,11.20
2014,06,22,04,42,11.20
2014,06,22,04,43,11.20
2014,06,22,04,44,11.20
2014,06,22,04,45,11.20
2014,06,22,04,46,11.20
2014,06,22,04,47,11.10
2014,06,22,04,48,11.10
2014,06,22,04,49,11.10
2014,06,22,04,50,11.10
2014,06,22,04,51,11.10
2014,06,22,04,52,11.10
2014,06,22,04,53,11.00
2014,06,22,04,54,11.00
2014,06,22,04,55,11.00
2014,06,22,04,56,11.00
2014,06,22,04,57,11.00
2014,06,22,04,58,10.90
2014,06,22,04,59,10.90
2014,06,22,05,00,10.90
2014,06,22,05,01,10.90
2014,06,22,05,02,10.90
2014,06,22,05,03,10.90
2014,06,22,05,04,10.90
2014,06,22,05,05,10.90
2014,06,22,05,06,10.90
2014,06,22,05,07,10.90
2014,06,22,05,08,10.90
2014,06,22,05,09,10.80
2014,06,22,05,10,10.80
2014,06,22,05,11,10.80
2014,06,22,05,12,10.80
2014,06,22,05,13,10.80
2014,06,22,05,14,10.80
2014,06,22,05,15,10.80
2014,06,22,05,16,10.80
2014,06,22,05,17,10.80
2014,06,22,05,18,10.80
2014,06,22,05,19,10.70
2014,06,22,05,20,10.70
2014,06,22,05,21,10.70
2014,06,22,05,22,10.80
2014,06,22,05,23,10.80
2014,06,22,05,24,10.80
2014,06,22,05,25,10.80
2014,06,22,05,26,10.80
2014,06,22,05,27,10.80
2014,06,22,05,28,10.80
2014,06,22,05,29,10.80
2014,06,22,05,30,10.90
2014,06,22,05,31,10.90
2014,06,22,05,32,10.90
2014,06,22,05,33,10.90
2014,06,22,05,34,10.90
2014,06,22,05,35,10.90
2014,06,22,05,36,10.90
2014,06,22,05,37,10.90
2014,06,22,05,38,10.90
2014,06,22,05,39,11.00
2014,06,22,05,40,11.00
2014,06,22,05,41,11.00
2014,06,22,05,42,11.10
2014,06,22,05,43,11.10
2014,06,22,05,44,11.10
2014,06,22,05,45,11.10
2014,06,22,05,46,11.10
2014,06,22,05,47,11.20
2014,06,22,05,48,11.20
2014,06,22,05,49,11.20
2014,06,22,05,50,11.20
2014,06,22,05,51,11.20
2014,06,22,05,52,11.20
2014,06,22,05,53,11.20
2014,06,22,05,54,11.30
2014,06,22,05,55,11.30
2014,06,22,05,56,11.30
2014,06,22,05,57,11.40
2014,06,22,05,58,11.40
2014,06,22,05,59,11.40
2014,06,22,06,00,11.50
2014,06,22,06,01,11.60
2014,06,22,06,02,11.60
2014,06,22,06,03,11.70
2014,06,22,06,04,11.70
2014,06,22,06,05,11.80
2014,06,22,06,06,11.80
2014,06,22,06,07,11.80
2014,06,22,06,08,11.80
2014,06,22,06,09,11.80
2014,06,22,06,10,11.80
2014,06,22,06,11,11.80
2014,06,22,06,12,11.90
2014,06,22,06,13,11.90
2014,06,22,06,14,11.90
2014,06,22,06,15,11.90
2014,06,22,06,16,11.90
2014,06,22,06,17,12.00
2014,06,22,06,18,12.00
2014,06,22,06,19,12.00
2014,06,22,06,20,12.10
2014,06,22,06,21,12.10
2014,06,22,06,22,12.20
2014,06,22,06,23,12.20
2014,06,22,06,24,12.30
2014,06,22,06,25,12.30
2014,06,22,06,26,12.40
2014,06,22,06,27,12.40
2014,06,22,06,28,12.50
2014,06,22,06,29,12.50
2014,06,22,06,30,12.60
2014,06,22,06,31,12.60
2014,06,22,06,32,12.70
2014,06,22,06,33,12.80
2014,06,22,06,34,12.80
2014,06,22,06,35,12.80
2014,06,22,06,36,12.90
2014,06,22,06,37,12.90
2014,06,22,06,38,12.90
2014,06,22,06,39,12.90
2014,06,22,06,40,12.90
2014,06,22,06,41,12.90
2014,06,22,06,42,12.80
2014,06,22,06,43,12.80
2014,06,22,06,44,12.80
2014,06,22,06,45,12.70
2014,06,22,06,46,12.70
2014,06,22,06,47,12.70
2014,06,22,06,48,12.70
2014,06,22,06,49,12.70
2014,06,22,06,50,12.70
2014,06,22,06,51,12.70
2014,06,22,06,52,12.70
2014,06,22,06,53,12.70
2014,06,22,06,54,12.70
2014,06,22,06,55,12.70
2014,06,22,06,56,12.80
2014,06,22,06,57,12.80
2014,06,22,06,58,12.80
2014,06,22,06,59,12.90
2014,06,22,07,00,12.90
2014,06,22,07,01,12.90
2014,06,22,07,02,13.00
2014,06,22,07,03,13.10
2014,06,22,07,04,13.10
2014,06,22,07,05,13.20
2014,06,22,07,06,13.20
2014,06,22,07,07,13.20
2014,06,22,07,08,13.30
2014,06,22,07,09,13.30
2014,06,22,07,10,13.40
2014,06,22,07,11,13.40
2014,06,22,07,12,13.50
2014,06,22,07,13,13.50
2014,06,22,07,14,13.60
2014,06,22,07,15,13.70
2014,06,22,07,16,13.80
2014,06,22,07,17,13.90
2014,06,22,07,18,14.00
2014,06,22,07,19,14.10
2014,06,22,07,20,14.10
2014,06,22,07,21,14.10
2014,06,22,07,22,14.10
2014,06,22,07,23,14.10
2014,06,22,07,24,14.10
2014,06,22,07,25,14.10
2014,06,22,07,26,14.00
2014,06,22,07,27,14.00
2014,06,22,07,28,14.00
2014,06,22,07,29,14.00
2014,06,22,07,30,14.10
2014,06,22,07,31,14.10
2014,06,22,07,32,14.20
2014,06,22,07,33,14.20
2014,06,22,07,34,14.20
2014,06,22,07,35,14.30
2014,06,22,07,36,14.30
2014,06,22,07,37,14.40
2014,06,22,07,38,14.40
2014,06,22,07,39,14.50
2014,06,22,07,40,14.60
2014,06,22,07,41,14.60
2014,06,22,07,42,14.60
2014,06,22,07,43,14.60
2014,06,22,07,44,14.60
2014,06,22,07,45,14.60
2014,06,22,07,46,14.60
2014,06,22,07,47,14.60
2014,06,22,07,48,14.60
2014,06,22,07,49,14.60
2014,06,22,07,50,14.60
2014,06,22,07,51,14.60
2014,06,22,07,52,14.60
2014,06,22,07,53,14.50
2014,06,22,07,54,14.50
2014,06,22,07,55,14.60
2014,06,22,07,56,14.60
2014,06,22,07,57,14.60
2014,06,22,07,58,14.60
2014,06,22,07,59,14.60
2014,06,22,08,00,14.60
2014,06,22,08,01,14.60
2014,06,22,08,02,14.60
2014,06,22,08,03,14.60
2014,06,22,08,04,14.60
2014,06,22,08,05,14.70
2014,06,22,08,06,14.70
2014,06,22,08,07,14.70
2014,06,22,08,08,14.70
2014,06,22,08,09,14.80
2014,06,22,08,10,14.80
2014,06,22,08,11,14.80
2014,06,22,08,12,14.80
2014,06,22,08,13,14.90
2014,06,22,08,14,14.90
2014,06,22,08,15,14.80
2014,06,22,08,16,14.80
2014,06,22,08,17,14.70
2014,06,22,08,18,14.60
2014,06,22,08,19,14.60
2014,06,22,08,20,14.50
2014,06,22,08,21,14.50
2014,06,22,08,22,14.40
2014,06,22,08,23,14.40
2014,06,22,08,24,14.30
2014,06,22,08,25,14.30
2014,06,22,08,26,14.30
2014,06,22,08,27,14.30
2014,06,22,08,28,14.30
2014,06,22,08,29,14.30
2014,06,22,08,30,14.20
2014,06,22,08,31,14.20
2014,06,22,08,32,14.20
2014,06,22,08,33,14.20
2014,06,22,08,34,14.30
2014,06,22,08,35,14.30
2014,06,22,08,36,14.40
2014,06,22,08,37,14.40
2014,06,22,08,38,14.50
2014,06,22,08,39,14.50
2014,06,22,08,40,14.60
2014,06,22,08,41,14.70
2014,06,22,08,42,14.70
2014,06,22,08,43,14.80
2014,06,22,08,44,14.80
2014,06,22,08,45,14.90
2014,06,22,08,46,14.90
2014,06,22,08,47,15.00
2014,06,22,08,48,15.10
2014,06,22,08,49,15.10
2014,06,22,08,50,15.10
2014,06,22,08,51,15.10
2014,06,22,08,52,15.20
2014,06,22,08,53,15.20
2014,06,22,08,54,15.20
2014,06,22,08,55,15.20
2014,06,22,08,56,15.20
2014,06,22,08,57,15.30
2014,06,22,08,58,15.30
2014,06,22,08,59,15.40
2014,06,22,09,00,15.40
2014,06,22,09,01,15.50
2014,06,22,09,02,15.50
2014,06,22,09,03,15.60
2014,06,22,09,04,15.70
2014,06,22,09,05,15.70
2014,06,22,09,06,15.70
2014,06,22,09,07,15.70
2014,06,22,09,08,15.80
2014,06,22,09,09,15.80
2014,06,22,09,10,15.80
2014,06,22,09,11,15.80
2014,06,22,09,12,15.80
2014,06,22,09,13,15.80
2014,06,22,09,14,15.80
2014,06,22,09,15,15.70
2014,06,22,09,16,15.70
2014,06,22,09,17,15.70
2014,06,22,09,18,15.70
2014,06,22,09,19,15.70
2014,06,22,09,20,15.60
2014,06,22,09,21,15.60
2014,06,22,09,22,15.60
2014,06,22,09,23,15.60
2014,06,22,09,24,15.60
2014,06,22,09,25,15.60
2014,06,22,09,26,15.60
2014,06,22,09,27,15.60
2014,06,22,09,28,15.70
2014,06,22,09,29,15.70
2014,06,22,09,30,15.70
2014,06,22,09,31,15.80
2014,06,22,09,32,15.80
2014,06,22,09,33,15.80
2014,06,22,09,34,15.90
2014,06,22,09,35,16.00
2014,06,22,09,36,16.00
2014,06,22,09,37,16.10
2014,06,22,09,38,16.20
2014,06,22,09,39,16.20
2014,06,22,09,40,16.20
2014,06,22,09,41,16.30
2014,06,22,09,42,16.30
2014,06,22,09,43,16.20
2014,06,22,09,44,16.10
2014,06,22,09,45,16.10
2014,06,22,09,46,16.10
2014,06,22,09,47,16.00
2014,06,22,09,48,16.00
2014,06,22,09,49,15.90
2014,06,22,09,50,15.90
2014,06,22,09,51,15.90
2014,06,22,09,52,15.80
2014,06,22,09,53,15.80
2014,06,22,09,54,15.80
2014,06,22,09,55,15.80
2014,06,22,09,56,15.80
2014,06,22,09,57,15.80
2014,06,22,09,58,15.80
2014,06,22,09,59,15.90
2014,06,22,10,00,15.90
2014,06,22,10,01,16.00
2014,06,22,10,02,16.00
2014,06,22,10,03,16.10
2014,06,22,10,04,16.10
2014,06,22,10,05,16.10
2014,06,22,10,06,16.20
2014,06,22,10,07,16.20
2014,06,22,10,08,16.20
2014,06,22,10,09,16.20
2014,06,22,10,10,16.20
2014,06,22,10,11,16.20
2014,06,22,10,12,16.20
2014,06,22,10,13,16.20
2014,06,22,10,14,16.20
2014,06,22,10,15,16.20
2014,06,22,10,16,16.20
2014,06,22,10,17,16.20
2014,06,22,10,18,16.30
2014,06,22,10,19,16.30
2014,06,22,10,20,16.30
2014,06,22,10,21,16.30
2014,06,22,10,22,16.30
2014,06,22,10,23,16.30
2014,06,22,10,24,16.30
2014,06,22,10,25,16.30
2014,06,22,10,26,16.30
2014,06,22,10,27,16.30
2014,06,22,10,28,16.20
2014,06,22,10,29,16.20
2014,06,22,10,30,16.20
2014,06,22,10,31,16.20
2014,06,22,10,32,16.10
2014,06,22,10,33,16.00
2014,06,22,10,34,16.00
2014,06,22,10,35,15.90
2014,06,22,10,36,15.90
2014,06,22,10,37,15.80
2014,06,22,10,38,15.80
2014,06,22,10,39,15.70
2014,06,22,10,40,15.70
2014,06,22,10,41,15.70
2014,06,22,10,42,15.70
2014,06,22,10,43,15.70
2014,06,22,10,44,15.70
2014,06,22,10,45,15.70
2014,06,22,10,46,15.70
2014,06,22,10,47,15.80
2014,06,22,10,48,15.80
2014,06,22,10,49,15.80
2014,06,22,10,50,15.90
2014,06,22,10,51,15.90
2014,06,22,10,52,16.00
2014,06,22,10,53,16.10
2014,06,22,10,54,16.20
2014,06,22,10,55,16.30
2014,06,22,10,56,16.30
2014,06,22,10,57,16.30
2014,06,22,10,58,16.30
2014,06,22,10,59,16.40
2014,06,22,11,00,16.40
2014,06,22,11,01,16.40
2014,06,22,11,02,16.40
2014,06,22,11,03,16.40
2014,06,22,11,04,16.50
2014,06,22,11,05,16.50
2014,06,22,11,06,16.50
2014,06,22,11,07,16.60
2014,06,22,11,08,16.70
2014,06,22,11,09,16.80
2014,06,22,11,10,16.90
2014,06,22,11,11,16.90
2014,06,22,11,12,16.90
2014,06,22,11,13,16.90
2014,06,22,11,14,16.90
2014,06,22,11,15,16.90
2014,06,22,11,16,16.80
2014,06,22,11,17,16.80
2014,06,22,11,18,16.80
2014,06,22,11,19,16.80
2014,06,22,11,20,16.70
2014,06,22,11,21,16.70
2014,06,22,11,22,16.70
2014,06,22,11,23,16.80
2014,06,22,11,24,16.80
2014,06,22,11,25,16.80
2014,06,22,11,26,16.90
2014,06,22,11,27,16.90
2014,06,22,11,28,17.00
2014,06,22,11,29,17.00
2014,06,22,11,30,16.90
2014,06,22,11,31,16.90
2014,06,22,11,32,16.90
2014,06,22,11,33,16.90
2014,06,22,11,34,17.00
2014,06,22,11,35,17.00
2014,06,22,11,36,17.10
2014,06,22,11,37,17.10
2014,06,22,11,38,17.00
2014,06,22,11,39,17.00
2014,06,22,11,40,17.00
2014,06,22,11,41,17.10
2014,06,22,11,42,17.10
2014,06,22,11,43,17.10
2014,06,22,11,44,17.10
2014,06,22,11,45,17.10
2014,06,22,11,46,17.10
2014,06,22,11,47,17.10
2014,06,22,11,48,17.10
2014,06,22,11,49,17.20
2014,06,22,11,50,17.20
2014,06,22,11,51,17.30
2014,06,22,11,52,17.40
2014,06,22,11,53,17.40
2014,06,22,11,54,17.50
2014,06,22,11,55,17.60
2014,06,22,11,56,17.70
2014,06,22,11,57,17.70
2014,06,22,11,58,17.80
2014,06,22,11,59,17.80
2014,06,22,12,00,17.80
2014,06,22,12,01,17.90
2014,06,22,12,02,17.90
2014,06,22,12,03,17.90
2014,06,22,12,04,17.90
2014,06,22,12,05,18.00
2014,06,22,12,06,18.00
2014,06,22,12,07,18.10
2014,06,22,12,08,18.10
2014,06,22,12,09,18.10
2014,06,22,12,10,18.10
2014,06,22,12,11,18.10
2014,06,22,12,12,18.10
2014,06,22,12,13,18.10
2014,06,22,12,14,18.10
2014,06,22,12,15,18.20
2014,06,22,12,16,18.20
2014,06,22,12,17,18.30
2014,06,22,12,18,18.30
2014,06,22,12,19,18.40
2014,06,22,12,20,18.50
2014,06,22,12,21,18.50
2014,06,22,12,22,18.60
2014,06,22,12,23,18.50
2014,06,22,12,24,18.40
2014,06,22,12,25,18.40
2014,06,22,12,26,18.40
2014,06,22,12,27,18.40
2014,06,22,12,28,18.30
2014,06,22,12,29,18.30
2014,06,22,12,30,18.30
2014,06,22,12,31,18.40
2014,06,22,12,32,18.50
2014,06,22,12,33,18.50
2014,06,22,12,34,18.60
2014,06,22,12,35,18.70
2014,06,22,12,36,18.70
2014,06,22,12,37,18.80
2014,06,22,12,38,18.80
2014,06,22,12,39,18.80
2014,06,22,12,40,18.70
2014,06,22,12,41,18.60
2014,06,22,12,42,18.60
2014,06,22,12,43,18.60
2014,06,22,12,44,18.60
2014,06,22,12,45,18.60
2014,06,22,12,46,18.60
2014,06,22,12,47,18.60
2014,06,22,12,48,18.60
2014,06,22,12,49,18.60
2014,06,22,12,50,18.60
2014,06,22,12,51,18.70
2014,06,22,12,52,18.70
2014,06,22,12,53,18.60
2014,06,22,12,54,18.60
2014,06,22,12,55,18.70
2014,06,22,12,56,18.80
2014,06,22,12,57,18.80
2014,06,22,12,58,18.90
2014,06,22,12,59,19.00
2014,06,22,13,00,19.00
2014,06,22,13,01,19.00
2014,06,22,13,02,19.00
2014,06,22,13,03,19.00
2014,06,22,13,04,19.00
2014,06,22,13,05,19.00
2014,06,22,13,06,19.10
2014,06,22,13,07,19.10
2014,06,22,13,08,19.10
2014,06,22,13,09,19.10
2014,06,22,13,10,19.00
2014,06,22,13,11,18.90
2014,06,22,13,12,18.70
2014,06,22,13,13,18.60
2014,06,22,13,14,18.50
2014,06,22,13,15,18.50
2014,06,22,13,16,18.60
2014,06,22,13,17,18.70
2014,06,22,13,18,18.80
2014,06,22,13,19,18.90
2014,06,22,13,20,19.00
2014,06,22,13,21,19.10
2014,06,22,13,22,19.20
2014,06,22,13,23,19.30
2014,06,22,13,24,19.40
2014,06,22,13,25,19.50
2014,06,22,13,26,19.60
2014,06,22,13,27,19.70
2014,06,22,13,28,19.80
2014,06,22,13,29,19.90
2014,06,22,13,30,19.90
2014,06,22,13,31,19.90
2014,06,22,13,32,20.00
2014,06,22,13,33,20.10
2014,06,22,13,34,20.10
2014,06,22,13,35,20.10
2014,06,22,13,36,20.10
2014,06,22,13,37,20.10
2014,06,22,13,38,20.10
2014,06,22,13,39,20.10
2014,06,22,13,40,20.20
2014,06,22,13,41,20.30
2014,06,22,13,42,20.30
2014,06,22,13,43,20.40
2014,06,22,13,44,20.50
2014,06,22,13,45,20.60
2014,06,22,13,46,20.60
2014,06,22,13,47,20.70
2014,06,22,13,48,20.70
2014,06,22,13,49,20.70
2014,06,22,13,50,20.70
2014,06,22,13,51,20.60
2014,06,22,13,52,20.40
2014,06,22,13,53,20.30
2014,06,22,13,54,20.30
2014,06,22,13,55,20.20
2014,06,22,13,56,20.10
2014,06,22,13,57,20.10
2014,06,22,13,58,20.00
2014,06,22,13,59,20.00
2014,06,22,14,00,20.00
2014,06,22,14,01,20.00
2014,06,22,14,02,20.10
2014,06,22,14,03,20.20
2014,06,22,14,04,20.30
2014,06,22,14,05,20.40
2014,06,22,14,06,20.50
2014,06,22,14,07,20.60
2014,06,22,14,08,20.60
2014,06,22,14,09,20.60
2014,06,22,14,10,20.60
2014,06,22,14,11,20.60
2014,06,22,14,12,20.60
2014,06,22,14,13,20.60
2014,06,22,14,14,20.60
2014,06,22,14,15,20.70
2014,06,22,14,16,20.70
2014,06,22,14,17,20.80
2014,06,22,14,18,20.80
2014,06,22,14,19,20.80
2014,06,22,14,20,20.80
2014,06,22,14,21,20.70
2014,06,22,14,22,20.70
2014,06,22,14,23,20.60
2014,06,22,14,24,20.60
2014,06,22,14,25,20.60
2014,06,22,14,26,20.50
2014,06,22,14,27,20.50
2014,06,22,14,28,20.50
2014,06,22,14,29,20.40
2014,06,22,14,30,20.40
2014,06,22,14,31,20.50
2014,06,22,14,32,20.50
2014,06,22,14,33,20.60
2014,06,22,14,34,20.70
2014,06,22,14,35,20.70
2014,06,22,14,36,20.80
2014,06,22,14,37,20.80
2014,06,22,14,38,20.70
2014,06,22,14,39,20.70
2014,06,22,14,40,20.70
2014,06,22,14,41,20.70
2014,06,22,14,42,20.80
2014,06,22,14,43,20.70
2014,06,22,14,44,20.60
2014,06,22,14,45,20.50
2014,06,22,14,46,20.40
2014,06,22,14,47,20.40
2014,06,22,14,48,20.40
2014,06,22,14,49,20.40
2014,06,22,14,50,20.40
2014,06,22,14,51,20.40
2014,06,22,14,52,20.40
2014,06,22,14,53,20.40
2014,06,22,14,54,20.40
2014,06,22,14,55,20.40
2014,06,22,14,56,20.30
2014,06,22,14,57,20.40
2014,06,22,14,58,20.50
2014,06,22,14,59,20.60
2014,06,22,15,00,20.70
2014,06,22,15,01,20.80
2014,06,22,15,02,20.90
2014,06,22,15,03,21.00
2014,06,22,15,04,21.00
2014,06,22,15,05,21.00
2014,06,22,15,06,21.00
2014,06,22,15,07,21.10
2014,06,22,15,08,21.20
2014,06,22,15,09,21.20
2014,06,22,15,10,21.30
2014,06,22,15,11,21.30
2014,06,22,15,12,21.20
2014,06,22,15,13,21.20
2014,06,22,15,14,21.20
2014,06,22,15,15,21.20
2014,06,22,15,16,21.10
2014,06,22,15,17,21.10
2014,06,22,15,18,21.10
2014,06,22,15,19,21.00
2014,06,22,15,20,20.90
2014,06,22,15,21,20.90
2014,06,22,15,22,21.00
2014,06,22,15,23,21.00
2014,06,22,15,24,21.00
2014,06,22,15,25,20.90
2014,06,22,15,26,21.00
2014,06,22,15,27,21.00
2014,06,22,15,28,21.10
2014,06,22,15,29,21.20
2014,06,22,15,30,21.30
2014,06,22,15,31,21.30
2014,06,22,15,32,21.30
2014,06,22,15,33,21.30
2014,06,22,15,34,21.30
2014,06,22,15,35,21.30
2014,06,22,15,36,21.40
2014,06,22,15,37,21.50
2014,06,22,15,38,21.60
2014,06,22,15,39,21.60
2014,06,22,15,40,21.70
2014,06,22,15,41,21.90
2014,06,22,15,42,22.10
2014,06,22,15,43,22.20
2014,06,22,15,44,22.30
2014,06,22,15,45,22.50
2014,06,22,15,46,22.60
2014,06,22,15,47,22.60
2014,06,22,15,48,22.60
2014,06,22,15,49,22.50
2014,06,22,15,50,22.50
2014,06,22,15,51,22.50
2014,06,22,15,52,22.50
2014,06,22,15,53,22.50
2014,06,22,15,54,22.50
2014,06,22,15,55,22.50
2014,06,22,15,56,22.40
2014,06,22,15,57,22.40
2014,06,22,15,58,22.40
2014,06,22,15,59,22.40
2014,06,22,16,00,22.50
2014,06,22,16,01,22.50
2014,06,22,16,02,22.60
2014,06,22,16,03,22.60
2014,06,22,16,04,22.60
2014,06,22,16,05,22.60
2014,06,22,16,06,22.60
2014,06,22,16,07,22.60
2014,06,22,16,08,22.70
2014,06,22,16,09,22.70
2014,06,22,16,10,22.80
2014,06,22,16,11,22.90
2014,06,22,16,12,22.90
2014,06,22,16,13,22.90
2014,06,22,16,14,23.00
2014,06,22,16,15,23.00
2014,06,22,16,16,23.10
2014,06,22,16,17,23.10
2014,06,22,16,18,23.10
2014,06,22,16,19,23.00
2014,06,22,16,20,22.90
2014,06,22,16,21,22.90
2014,06,22,16,22,22.90
2014,06,22,16,23,22.90
2014,06,22,16,24,22.80
2014,06,22,16,25,22.80
2014,06,22,16,26,22.80
2014,06,22,16,27,22.70
2014,06,22,16,28,22.70
2014,06,22,16,29,22.60
2014,06,22,16,30,22.60
2014,06,22,16,31,22.70
2014,06,22,16,32,22.80
2014,06,22,16,33,22.90
2014,06,22,16,34,23.10
2014,06,22,16,35,23.00
2014,06,22,16,36,22.90
2014,06,22,16,37,22.80
2014,06,22,16,38,22.70
2014,06,22,16,39,22.60
2014,06,22,16,40,22.70
2014,06,22,16,41,22.70
2014,06,22,16,42,22.70
2014,06,22,16,43,22.80
2014,06,22,16,44,22.90
2014,06,22,16,45,23.00
2014,06,22,16,46,23.20
2014,06,22,16,47,23.20
2014,06,22,16,48,23.10
2014,06,22,16,49,23.10
2014,06,22,16,50,23.10
2014,06,22,16,51,23.00
2014,06,22,16,52,23.00
2014,06,22,16,53,23.00
2014,06,22,16,54,23.10
2014,06,22,16,55,23.20
2014,06,22,16,56,23.20
2014,06,22,16,57,23.20
2014,06,22,16,58,23.30
2014,06,22,16,59,23.30
2014,06,22,17,00,23.20
2014,06,22,17,01,23.20
2014,06,22,17,02,23.20
2014,06,22,17,03,23.20
2014,06,22,17,04,23.20
2014,06,22,17,05,23.10
2014,06,22,17,06,23.10
2014,06,22,17,07,23.10
2014,06,22,17,08,23.10
2014,06,22,17,09,23.10
2014,06,22,17,10,23.10
2014,06,22,17,11,23.10
2014,06,22,17,12,23.20
2014,06,22,17,13,23.30
2014,06,22,17,14,23.40
2014,06,22,17,15,23.40
2014,06,22,17,16,23.40
2014,06,22,17,17,23.40
2014,06,22,17,18,23.40
2014,06,22,17,19,23.50
2014,06,22,17,20,23.50
2014,06,22,17,21,23.50